Dades meteomassalio
Diari Summary for Maig 12, 2017 Units:  English    Metric   Both
« Previous Day
Next Day »
Diari Semanal Mensual Anual Personalitzat
  Maxima: Minima: Mijana:
Temperatura: TemperatureC °F 10.3 °F 18.4 °F
Rosada: DewpointC °F 7.4 °F 8.5 °F
Humitat: Humidity % 35 % 55 %
Velocitat del vent: WindSpeedKMH mph 0.0 mph 8.6 mph
Racha vent: WindSpeedGustKMH mph - -
Vent:- - WSW
Pressio: PressurehPa in 1003.3 in -
Pluja: 0.0 in    
Historical Graphs
 
 
Tabular Data for Maig 12, 2017
Time Temperature Dew Point Pressure Wind Wind Speed Wind Gust Humidity Rainfall Rate (Hourly) solar Conditions
TemperatureC °F DewpointC °F PressurehPa in Calm     Humidity % HourlyPrecipMM in SolarRadiationWatts/m^2 W/m2 Conditions
00:00 19.1 °F 7.8 °F 1003.3 in West 22.2 mph 22.2 mph 48 % 0.0 in 0.0 W/m2 RA
00:05 19.0 °F 7.7 °F 1003.3 in West 27.8 mph 27.8 mph 48 % 0.0 in 0.0 W/m2 CLR
00:10 18.9 °F 8.0 °F 1003.6 in West 20.4 mph 20.4 mph 49 % 0.0 in 0.0 W/m2 CLR
00:15 18.8 °F 7.9 °F 1003.6 in West 22.2 mph 22.2 mph 49 % 0.0 in 0.0 W/m2 CLR
00:20 18.7 °F 8.1 °F 1003.3 in West 27.8 mph 27.8 mph 50 % 0.0 in 0.0 W/m2 CLR
00:25 18.6 °F 7.9 °F 1003.3 in WSW 25.9 mph 25.9 mph 50 % 0.0 in 0.0 W/m2 CLR
00:30 18.5 °F 7.9 °F 1003.3 in West 24.1 mph 24.1 mph 50 % 0.0 in 0.0 W/m2 CLR
00:35 18.4 °F 8.1 °F 1003.6 in WSW 22.2 mph 22.2 mph 51 % 0.0 in 0.0 W/m2 CLR
00:40 18.2 °F 8.2 °F 1003.6 in West 20.4 mph 20.4 mph 52 % 0.0 in 0.0 W/m2 CLR
00:46 18.2 °F 8.2 °F 1003.3 in WNW 25.9 mph 25.9 mph 52 % 0.0 in 0.0 W/m2 CLR
00:51 18.2 °F 8.2 °F 1003.3 in West 24.1 mph 24.1 mph 52 % 0.0 in 0.0 W/m2 CLR
00:56 18.2 °F 8.2 °F 1003.3 in West 27.8 mph 27.8 mph 52 % 0.0 in 0.0 W/m2 CLR
01:01 18.2 °F 8.2 °F 1003.6 in West 18.5 mph 18.5 mph 52 % 0.0 in 0.0 W/m2 CLR
01:06 18.1 °F 8.3 °F 1003.6 in West 18.5 mph 18.5 mph 53 % 0.0 in 0.0 W/m2 CLR
01:11 17.9 °F 8.2 °F 1003.6 in WNW 18.5 mph 18.5 mph 53 % 0.0 in 0.0 W/m2 CLR
01:16 17.8 °F 8.1 °F 1003.6 in WNW 16.7 mph 16.7 mph 53 % 0.0 in 0.0 W/m2 CLR
01:21 17.5 °F 8.1 °F 1003.6 in WNW 16.7 mph 16.7 mph 54 % 0.0 in 0.0 W/m2 CLR
01:26 17.4 °F 8.3 °F 1003.9 in WNW 20.4 mph 20.4 mph 55 % 0.0 in 0.0 W/m2 CLR
01:31 17.3 °F 8.2 °F 1003.9 in WNW 16.7 mph 16.7 mph 55 % 0.0 in 0.0 W/m2 CLR
01:36 17.1 °F 8.4 °F 1003.9 in NW 16.7 mph 16.7 mph 57 % 0.0 in 0.0 W/m2 CLR
01:41 16.9 °F 8.3 °F 1003.9 in WNW 16.7 mph 16.7 mph 57 % 0.0 in 0.0 W/m2 CLR
01:46 16.8 °F 8.2 °F 1003.9 in WNW 16.7 mph 17.2 mph 57 % 0.0 in 0.0 W/m2 CLR
01:51 16.8 °F 8.2 °F 1003.9 in NW 18.5 mph 18.5 mph 57 % 0.0 in 0.0 W/m2 CLR
01:56 16.8 °F 8.4 °F 1003.9 in WNW 20.4 mph 20.4 mph 58 % 0.0 in 0.0 W/m2 CLR
02:01 16.8 °F 8.2 °F 1003.6 in WNW 20.4 mph 20.4 mph 57 % 0.0 in 0.0 W/m2 CLR
02:06 16.7 °F 8.2 °F 1003.9 in WNW 20.4 mph 20.4 mph 57 % 0.0 in 0.0 W/m2 CLR
02:11 16.7 °F 8.1 °F 1003.9 in NW 18.5 mph 18.5 mph 57 % 0.0 in 0.0 W/m2 CLR
02:16 16.6 °F 8.3 °F 1003.6 in NW 13.0 mph 13.0 mph 58 % 0.0 in 0.0 W/m2 CLR
02:21 16.3 °F 8.3 °F 1003.6 in WNW 16.7 mph 16.7 mph 59 % 0.0 in 0.0 W/m2 CLR
02:26 16.1 °F 8.3 °F 1003.6 in West 18.5 mph 18.5 mph 60 % 0.0 in 0.0 W/m2 CLR
02:31 16.3 °F 8.1 °F 1003.6 in WNW 18.5 mph 18.5 mph 58 % 0.0 in 0.0 W/m2 CLR
02:36 16.7 °F 8.2 °F 1003.6 in WNW 20.4 mph 20.4 mph 57 % 0.0 in 0.0 W/m2 CLR
02:41 16.8 °F 8.0 °F 1003.6 in WNW 18.5 mph 18.5 mph 56 % 0.0 in 0.0 W/m2 CLR
02:46 16.7 °F 8.2 °F 1003.9 in WNW 16.7 mph 16.7 mph 57 % 0.0 in 0.0 W/m2 CLR
02:51 16.6 °F 8.1 °F 1003.9 in WNW 14.8 mph 14.8 mph 57 % 0.0 in 0.0 W/m2 CLR
02:56 16.4 °F 8.1 °F 1003.9 in WNW 5.6 mph 5.6 mph 58 % 0.0 in 0.0 W/m2 CLR
03:01 16.1 °F 8.1 °F 1003.6 in Calm     59 % 0.0 in 0.0 W/m2 CLR
03:06 15.7 °F 8.0 °F 1003.9 in Calm     60 % 0.0 in 0.0 W/m2 CLR
03:11 15.5 °F 8.2 °F 1003.6 in Calm     62 % 0.0 in 0.0 W/m2 CLR
03:16 15.3 °F 8.3 °F 1003.6 in Calm     63 % 0.0 in 0.0 W/m2 CLR
03:21 15.1 °F 8.3 °F 1003.6 in Calm     64 % 0.0 in 0.0 W/m2 CLR
03:26 14.9 °F 8.6 °F 1003.6 in Calm     66 % 0.0 in 0.0 W/m2 CLR
03:31 14.5 °F 8.7 °F 1003.9 in Calm     68 % 0.0 in 0.0 W/m2 CLR
03:36 14.2 °F 8.4 °F 1003.9 in Calm     68 % 0.0 in 0.0 W/m2 CLR
03:41 14.1 °F 8.2 °F 1003.9 in Calm     68 % 0.0 in 0.0 W/m2 CLR
03:46 13.9 °F 8.1 °F 1003.9 in Calm     68 % 0.0 in 0.0 W/m2 CLR
03:51 13.8 °F 8.2 °F 1003.9 in Calm     69 % 0.0 in 0.0 W/m2 CLR
03:56 13.6 °F 8.2 °F 1004.3 in Calm     70 % 0.0 in 0.0 W/m2 CLR
04:01 13.3 °F 8.2 °F 1004.3 in Calm     71 % 0.0 in 0.0 W/m2 CLR
04:06 13.1 °F 8.2 °F 1004.3 in Calm     72 % 0.0 in 0.0 W/m2 CLR
04:11 12.9 °F 8.0 °F 1004.3 in Calm     72 % 0.0 in 0.0 W/m2 CLR
04:16 12.9 °F 8.2 °F 1004.3 in Calm     73 % 0.0 in 0.0 W/m2 CLR
04:21 12.8 °F 8.1 °F 1004.3 in Calm     73 % 0.0 in 0.0 W/m2 CLR
04:26 12.7 °F 8.3 °F 1004.3 in Calm     75 % 0.0 in 0.0 W/m2 CLR
04:31 12.2 °F 8.1 °F 1004.3 in Calm     76 % 0.0 in 0.0 W/m2 CLR
04:36 11.8 °F 8.1 °F 1004.3 in Calm     78 % 0.0 in 0.0 W/m2 CLR
04:41 11.7 °F 8.2 °F 1004.3 in Calm     79 % 0.0 in 0.0 W/m2 CLR
04:46 11.6 °F 8.1 °F 1004.3 in Calm     79 % 0.0 in 0.0 W/m2 CLR
04:51 11.4 °F 8.1 °F 1004.3 in Calm     80 % 0.0 in 0.0 W/m2 CLR
04:56 11.3 °F 8.0 °F 1004.3 in Calm     80 % 0.0 in 0.0 W/m2 CLR
05:01 11.2 °F 8.1 °F 1004.3 in Calm     81 % 0.0 in 0.0 W/m2 CLR
05:06 11.2 °F 8.0 °F 1004.3 in Calm     81 % 0.0 in 0.0 W/m2 CLR
05:11 11.1 °F 7.9 °F 1004.3 in Calm     81 % 0.0 in 0.0 W/m2 CLR
05:16 10.9 °F 7.9 °F 1004.3 in Calm     82 % 0.0 in 0.0 W/m2 CLR
05:21 10.8 °F 7.9 °F 1004.3 in Calm     82 % 0.0 in 0.0 W/m2 CLR
05:26 10.8 °F 7.8 °F 1004.3 in Calm     82 % 0.0 in 0.0 W/m2 CLR
05:31 10.7 °F 7.9 °F 1004.3 in Calm     83 % 0.0 in 0.0 W/m2 CLR
05:36 10.6 °F 7.8 °F 1004.3 in Calm     83 % 0.0 in 0.0 W/m2 CLR
05:41 10.5 °F 7.9 °F 1004.3 in Calm     84 % 0.0 in 0.0 W/m2 CLR
05:46 10.4 °F 7.8 °F 1004.3 in Calm     84 % 0.0 in 0.0 W/m2 CLR
05:51 10.4 °F 7.8 °F 1004.3 in Calm     84 % 0.0 in 0.0 W/m2 CLR
05:56 10.4 °F 7.8 °F 1004.3 in Calm     84 % 0.0 in 0.0 W/m2 CLR
06:01 10.3 °F 7.9 °F 1004.3 in Calm     85 % 0.0 in 0.0 W/m2 CLR
06:06 10.4 °F 7.8 °F 1004.6 in Calm     84 % 0.0 in 0.0 W/m2 CLR
06:11 10.4 °F 7.7 °F 1004.6 in Calm     83 % 0.0 in 0.0 W/m2 CLR
06:16 10.6 °F 7.8 °F 1004.3 in Calm     83 % 0.0 in 0.0 W/m2 CLR
06:21 10.7 °F 7.9 °F 1004.6 in Calm     83 % 0.0 in 0.0 W/m2 CLR
06:26 10.7 °F 7.9 °F 1004.6 in Calm     83 % 0.0 in 0.0 W/m2 CLR
06:32 10.7 °F 7.9 °F 1004.6 in Calm     83 % 0.0 in 0.0 W/m2 CLR
06:37 10.7 °F 8.1 °F 1005.0 in Calm     84 % 0.0 in 7.0 W/m2 OVC
06:42 10.7 °F 8.1 °F 1005.0 in Calm     84 % 0.0 in 14.0 W/m2 OVC
06:47 10.6 °F 8.0 °F 1005.0 in Calm     84 % 0.0 in 18.0 W/m2 OVC
06:52 10.6 °F 8.0 °F 1005.0 in Calm     84 % 0.0 in 19.0 W/m2 BKN
06:57 10.6 °F 7.8 °F 1005.0 in Calm     83 % 0.0 in 18.0 W/m2 BKN
07:02 10.7 °F 8.1 °F 1005.3 in Calm     84 % 0.0 in 18.0 W/m2 BKN
07:07 10.7 °F 8.1 °F 1005.3 in Calm     84 % 0.0 in 23.0 W/m2 BKN
07:12 10.8 °F 8.2 °F 1005.0 in Calm     84 % 0.0 in 25.0 W/m2 BKN
07:17 10.9 °F 8.3 °F 1005.3 in Calm     84 % 0.0 in 21.0 W/m2 BKN
07:22 11.1 °F 8.3 °F 1005.3 in Calm     83 % 0.0 in 33.0 W/m2 BKN
07:27 11.2 °F 8.4 °F 1005.3 in Calm     83 % 0.0 in 32.0 W/m2 BKN
07:32 11.3 °F 8.3 °F 1005.3 in Calm     82 % 0.0 in 32.0 W/m2 BKN
07:37 11.4 °F 8.4 °F 1005.3 in Calm     82 % 0.0 in 40.0 W/m2 BKN
07:42 11.4 °F 8.4 °F 1005.3 in Calm     82 % 0.0 in 63.0 W/m2 SCT
07:47 11.4 °F 8.5 °F 1005.6 in Calm     82 % 0.0 in 74.0 W/m2 SCT
07:52 11.6 °F 8.6 °F 1005.6 in Calm     82 % 0.0 in 72.0 W/m2 FEW
07:57 11.7 °F 8.9 °F 1005.6 in Calm     83 % 0.0 in 70.0 W/m2 FEW
08:02 11.8 °F 8.8 °F 1005.6 in Calm     82 % 0.0 in 67.0 W/m2 FEW
08:07 12.0 °F 9.0 °F 1005.6 in Calm     82 % 0.0 in 72.0 W/m2 FEW
08:12 12.1 °F 8.9 °F 1005.6 in Calm     81 % 0.0 in 83.0 W/m2 FEW
08:17 12.3 °F 9.2 °F 1005.6 in Calm     81 % 0.0 in 179.0 W/m2 FEW
08:22 12.7 °F 9.3 °F 1005.6 in Calm     80 % 0.0 in 225.0 W/m2 CLR
08:27 13.1 °F 9.3 °F 1005.6 in Calm     78 % 0.0 in 197.0 W/m2 CLR
08:32 13.4 °F 9.2 °F 1005.6 in Calm     76 % 0.0 in 253.0 W/m2 CLR
08:37 13.8 °F 9.7 °F 1005.6 in Calm     76 % 0.0 in 304.0 W/m2 CLR
08:38 13.9 °F 9.8 °F 1005.6 in Calm     76 % 0.0 in 311.0 W/m2 CLR
08:43 14.4 °F 9.8 °F 1005.6 in Calm     74 % 0.0 in 336.0 W/m2 CLR
08:48 14.7 °F 9.7 °F 1005.6 in Calm     72 % 0.0 in 352.0 W/m2 CLR
08:53 15.2 °F 9.5 °F 1005.6 in West 3.7 mph 3.7 mph 69 % 0.0 in 390.0 W/m2 CLR
08:58 15.7 °F 9.6 °F 1005.6 in Calm     67 % 0.0 in 374.0 W/m2 CLR
09:03 16.2 °F 9.8 °F 1005.6 in Calm     66 % 0.0 in 427.0 W/m2 CLR
09:08 16.8 °F 9.9 °F 1005.6 in Calm     64 % 0.0 in 373.0 W/m2 CLR
09:13 17.4 °F 9.6 °F 1005.6 in Calm     60 % 0.0 in 478.0 W/m2 CLR
09:18 18.0 °F 10.4 °F 1005.6 in West 6.4 mph 6.4 mph 61 % 0.0 in 471.0 W/m2 CLR
09:23 18.2 °F 8.4 °F 1005.6 in West 9.3 mph 9.3 mph 53 % 0.0 in 520.0 W/m2 CLR
09:28 18.1 °F 8.1 °F 1005.6 in West 16.7 mph 16.7 mph 52 % 0.0 in 343.0 W/m2 CLR
09:33 18.1 °F 8.4 °F 1005.6 in NW 11.3 mph 11.3 mph 53 % 0.0 in 306.0 W/m2 CLR
09:38 18.1 °F 8.1 °F 1005.6 in WNW 11.1 mph 11.1 mph 52 % 0.0 in 313.0 W/m2 CLR
09:43 18.1 °F 7.8 °F 1006.0 in West 14.8 mph 14.8 mph 51 % 0.0 in 323.0 W/m2 CLR
09:48 18.1 °F 8.4 °F 1006.0 in NW 8.0 mph 8.0 mph 53 % 0.0 in 367.0 W/m2 CLR
09:53 18.3 °F 8.6 °F 1005.6 in West 5.6 mph 5.6 mph 53 % 0.0 in 441.0 W/m2 CLR
09:58 18.3 °F 8.0 °F 1005.6 in WNW 9.7 mph 9.7 mph 51 % 0.0 in 570.0 W/m2 CLR
10:03 18.4 °F 8.3 °F 1006.0 in NW 7.4 mph 7.4 mph 52 % 0.0 in 473.0 W/m2 CLR
10:08 18.6 °F 9.1 °F 1005.6 in NNW 7.4 mph 7.4 mph 54 % 0.0 in 411.0 W/m2 CLR
10:13 18.7 °F 8.6 °F 1006.0 in NW 13.0 mph 13.0 mph 52 % 0.0 in 594.0 W/m2 CLR
10:18 18.8 °F 9.0 °F 1006.0 in NW 16.7 mph 16.7 mph 53 % 0.0 in 466.0 W/m2 CLR
10:23 18.8 °F 8.4 °F 1006.0 in NW 5.6 mph 5.8 mph 51 % 0.0 in 378.0 W/m2 CLR
10:28 18.6 °F 8.8 °F 1006.0 in WNW 8.0 mph 8.0 mph 53 % 0.0 in 385.0 W/m2 CLR
10:33 18.5 °F 8.4 °F 1006.0 in West 1.9 mph 1.9 mph 52 % 0.0 in 360.0 W/m2 CLR
10:38 18.6 °F 8.5 °F 1006.0 in NW 6.4 mph 6.4 mph 52 % 0.0 in 455.0 W/m2 CLR
10:43 18.7 °F 8.9 °F 1006.3 in NW 14.8 mph 14.8 mph 53 % 0.0 in 608.0 W/m2 CLR
10:48 18.8 °F 8.8 °F 1006.3 in NW 9.3 mph 9.3 mph 52 % 0.0 in 415.0 W/m2 CLR
10:53 18.7 °F 8.7 °F 1006.3 in NW 13.0 mph 13.0 mph 52 % 0.0 in 394.0 W/m2 CLR
10:58 18.8 °F 8.7 °F 1006.3 in WNW 9.3 mph 9.3 mph 52 % 0.0 in 443.0 W/m2 CLR
11:03 18.8 °F 7.9 °F 1006.3 in West 11.3 mph 11.3 mph 49 % 0.0 in 534.0 W/m2 CLR
11:08 18.9 °F 8.5 °F 1006.3 in WSW 8.0 mph 8.0 mph 51 % 0.0 in 599.0 W/m2 CLR
11:13 19.1 °F 8.7 °F 1006.3 in WNW 5.6 mph 5.6 mph 51 % 0.0 in 657.0 W/m2 CLR
11:18 19.3 °F 8.6 °F 1006.3 in West 5.6 mph 5.6 mph 50 % 0.0 in 431.0 W/m2 CLR
11:23 19.4 °F 8.4 °F 1006.3 in Calm     49 % 0.0 in 322.0 W/m2 CLR
11:28 19.3 °F 8.7 °F 1006.7 in WNW 7.4 mph 7.4 mph 50 % 0.0 in 385.0 W/m2 CLR
11:33 19.4 °F 8.2 °F 1006.7 in West 16.7 mph 16.7 mph 48 % 0.0 in 599.0 W/m2 CLR
11:39 19.7 °F 8.3 °F 1006.3 in WSW 11.3 mph 11.3 mph 48 % 0.0 in 896.0 W/m2 CLR
11:43 19.7 °F 8.9 °F 1006.3 in West 5.6 mph 5.6 mph 50 % 0.0 in 341.0 W/m2 CLR
11:49 19.5 °F 8.5 °F 1006.3 in West 7.4 mph 7.4 mph 49 % 0.0 in 570.0 W/m2 CLR
11:54 19.7 °F 8.4 °F 1006.3 in WNW 5.6 mph 5.6 mph 48 % 0.0 in 838.0 W/m2 CLR
11:59 20.1 °F 8.8 °F 1006.7 in NW 16.7 mph 16.7 mph 48 % 0.0 in 830.0 W/m2 CLR
12:04 20.3 °F 8.6 °F 1006.3 in WNW 14.8 mph 14.8 mph 47 % 0.0 in 835.0 W/m2 CLR
12:09 20.4 °F 8.7 °F 1006.3 in NW 7.4 mph 7.4 mph 47 % 0.0 in 835.0 W/m2 CLR
12:14 20.8 °F 8.7 °F 1006.3 in WNW 12.9 mph 12.9 mph 46 % 0.0 in 858.0 W/m2 CLR
12:19 20.9 °F 8.8 °F 1006.3 in WNW 20.4 mph 20.4 mph 46 % 0.0 in 879.0 W/m2 CLR
12:24 20.8 °F 8.4 °F 1006.3 in West 9.3 mph 9.3 mph 45 % 0.0 in 946.0 W/m2 CLR
12:29 20.9 °F 8.5 °F 1006.3 in NW 9.7 mph 9.7 mph 45 % 0.0 in 1071.0 W/m2 CLR
12:34 21.0 °F 8.3 °F 1006.3 in NW 7.4 mph 7.4 mph 44 % 0.0 in 220.0 W/m2 CLR
12:39 21.3 °F 8.9 °F 1006.3 in NW 25.9 mph 25.9 mph 45 % 0.0 in 378.0 W/m2 CLR
12:44 21.2 °F 9.1 °F 1006.3 in West 11.3 mph 11.3 mph 46 % 0.0 in 397.0 W/m2 CLR
12:49 21.2 °F 8.1 °F 1006.3 in WNW 20.4 mph 20.4 mph 43 % 0.0 in 425.0 W/m2 CLR
12:59 21.3 °F 8.2 °F 1006.7 in West 22.2 mph 22.2 mph 43 % 0.0 in 360.0 W/m2 CLR
13:04 21.1 °F 8.0 °F 1006.7 in West 25.9 mph 25.9 mph 43 % 0.0 in 348.0 W/m2 CLR
13:09 20.9 °F 8.5 °F 1006.3 in WNW 31.5 mph 31.5 mph 45 % 0.0 in 306.0 W/m2 CLR
13:14 20.9 °F 9.2 °F 1006.7 in NW 8.0 mph 8.0 mph 47 % 0.0 in 417.0 W/m2 CLR
13:19 20.9 °F 9.2 °F 1006.3 in WNW 5.6 mph 5.6 mph 47 % 0.0 in 482.0 W/m2 CLR
13:24 21.6 °F 8.4 °F 1006.3 in West 20.4 mph 20.4 mph 43 % 0.0 in 357.0 W/m2 CLR
13:29 21.8 °F 9.4 °F 1006.3 in NNW 18.5 mph 18.5 mph 45 % 0.0 in 1100.0 W/m2 CLR
13:34 21.8 °F 8.3 °F 1006.3 in NNW 22.2 mph 22.2 mph 42 % 0.0 in 334.0 W/m2 CLR
13:39 22.1 °F 9.2 °F 1006.3 in WNW 20.4 mph 20.4 mph 44 % 0.0 in 1155.0 W/m2 CLR
13:44 22.4 °F 8.8 °F 1006.3 in NW 22.2 mph 22.2 mph 42 % 0.0 in 1023.0 W/m2 CLR
13:49 22.3 °F 8.0 °F 1006.3 in NW 18.5 mph 18.5 mph 40 % 0.0 in 956.0 W/m2 CLR
13:54 22.4 °F 8.1 °F 1006.3 in Calm     40 % 0.0 in 1215.0 W/m2 CLR
13:59 22.4 °F 8.1 °F 1006.0 in WSW 11.1 mph 11.1 mph 40 % 0.0 in 990.0 W/m2 CLR
14:04 22.7 °F 8.8 °F 1006.0 in WSW 13.0 mph 13.0 mph 41 % 0.0 in 976.0 W/m2 CLR
14:09 22.8 °F 8.5 °F 1006.0 in North 5.6 mph 5.6 mph 40 % 0.0 in 1023.0 W/m2 CLR
14:14 22.7 °F 8.4 °F 1006.0 in NW 20.4 mph 20.4 mph 40 % 0.0 in 248.0 W/m2 CLR
14:19 22.4 °F 8.2 °F 1006.3 in NW 18.5 mph 18.5 mph 40 % 0.0 in 299.0 W/m2 CLR
14:24 22.5 °F 8.6 °F 1006.3 in North 16.1 mph 16.1 mph 41 % 0.0 in 371.0 W/m2 CLR
14:29 22.4 °F 8.1 °F 1006.0 in West 6.4 mph 6.4 mph 40 % 0.0 in 338.0 W/m2 CLR
14:34 22.7 °F 8.8 °F 1006.0 in Calm     41 % 0.0 in 1296.0 W/m2 CLR
14:39 23.1 °F 8.4 °F 1006.0 in NNW 8.0 mph 8.0 mph 39 % 0.0 in 241.0 W/m2 CLR
14:44 22.7 °F 8.1 °F 1006.0 in NNW 25.9 mph 25.9 mph 39 % 0.0 in 264.0 W/m2 CLR
14:49 22.3 °F 8.0 °F 1006.3 in NW 22.5 mph 22.5 mph 40 % 0.0 in 250.0 W/m2 CLR
14:54 22.0 °F 8.1 °F 1006.3 in NW 18.5 mph 18.5 mph 41 % 0.0 in 285.0 W/m2 CLR
14:59 22.0 °F 8.1 °F 1006.3 in NW 18.5 mph 18.5 mph 41 % 0.0 in 455.0 W/m2 CLR
15:04 22.4 °F 8.5 °F 1006.3 in NNW 16.7 mph 16.7 mph 41 % 0.0 in 418.0 W/m2 CLR
15:09 22.3 °F 8.1 °F 1006.0 in NNE 1.9 mph 1.9 mph 40 % 0.0 in 413.0 W/m2 CLR
15:15 22.4 °F 8.1 °F 1006.0 in Calm     40 % 0.0 in 482.0 W/m2 CLR
15:20 22.8 °F 8.5 °F 1006.0 in Calm   0.8 mph 40 % 0.0 in 1141.0 W/m2 CLR
15:25 23.4 °F 8.3 °F 1006.0 in ENE 7.4 mph 7.4 mph 38 % 0.0 in 1099.0 W/m2 CLR
15:30 23.6 °F 8.8 °F 1006.0 in ENE 7.4 mph 7.4 mph 39 % 0.0 in 580.0 W/m2 CLR
15:35 23.5 °F 8.7 °F 1005.6 in NNE 4.8 mph 4.8 mph 39 % 0.0 in 580.0 W/m2 CLR
15:40 23.6 °F 8.4 °F 1005.6 in ENE 13.0 mph 13.0 mph 38 % 0.0 in 339.0 W/m2 CLR
15:45 23.4 °F 8.7 °F 1005.6 in ENE 5.6 mph   39 % 0.0 in 281.0 W/m2 CLR
15:50 23.1 °F 8.0 °F 1005.6 in East 3.2 mph 3.2 mph 38 % 0.0 in 380.0 W/m2 CLR
15:55 23.2 °F 8.4 °F 1005.6 in ENE 3.7 mph 3.7 mph 39 % 0.0 in 1187.0 W/m2 CLR
16:00 23.3 °F 8.2 °F 1005.6 in East 9.3 mph 9.3 mph 38 % 0.0 in 439.0 W/m2 CLR
16:05 23.6 °F 8.8 °F 1005.6 in NE 14.8 mph 14.8 mph 39 % 0.0 in 1062.0 W/m2 CLR
16:10 23.8 °F 8.7 °F 1005.6 in ENE 11.1 mph 11.1 mph 38 % 0.0 in 234.0 W/m2 CLR
16:15 23.6 °F 8.4 °F 1005.6 in NE 9.7 mph 9.7 mph 38 % 0.0 in 260.0 W/m2 CLR
16:20 23.2 °F 8.1 °F 1005.6 in NE 5.6 mph 5.6 mph 38 % 0.0 in 258.0 W/m2 CLR
16:25 23.1 °F 7.9 °F 1005.6 in ENE 5.6 mph   38 % 0.0 in 359.0 W/m2 CLR
16:30 23.0 °F 7.9 °F 1005.6 in ENE 6.4 mph 6.4 mph 38 % 0.0 in 278.0 W/m2 CLR
16:35 23.2 °F 8.1 °F 1005.6 in East 7.4 mph 7.4 mph 38 % 0.0 in 276.0 W/m2 CLR
16:40 23.2 °F 7.7 °F 1005.6 in SE 6.4 mph 6.4 mph 37 % 0.0 in 241.0 W/m2 CLR
16:45 23.1 °F 8.0 °F 1005.6 in Calm     38 % 0.0 in 225.0 W/m2 CLR
16:50 23.1 °F 7.6 °F 1005.3 in ENE 5.6 mph 5.6 mph 37 % 0.0 in 220.0 W/m2 CLR
16:55 23.1 °F 8.3 °F 1005.3 in Calm     39 % 0.0 in 213.0 W/m2 CLR
17:00 23.1 °F 7.6 °F 1005.3 in SW 5.6 mph 5.6 mph 37 % 0.0 in 174.0 W/m2 CLR
17:05 23.0 °F 7.9 °F 1005.3 in Calm     38 % 0.0 in 216.0 W/m2 CLR
17:10 23.0 °F 7.5 °F 1005.6 in Calm     37 % 0.0 in 197.0 W/m2 CLR
17:15 23.1 °F 7.6 °F 1005.3 in SE 7.4 mph 7.4 mph 37 % 0.0 in 142.0 W/m2 CLR
17:20 22.9 °F 7.4 °F 1005.3 in SE 7.4 mph 7.4 mph 37 % 0.0 in 142.0 W/m2 CLR
17:25 22.9 °F 7.9 °F 1005.3 in SE 5.6 mph 5.6 mph 38 % 0.0 in 139.0 W/m2 CLR
17:30 23.0 °F 7.9 °F 1005.3 in ENE 1.9 mph 1.9 mph 38 % 0.0 in 218.0 W/m2 CLR
17:35 23.1 °F 8.3 °F 1005.6 in East 5.6 mph 5.6 mph 39 % 0.0 in 285.0 W/m2 CLR
17:40 23.2 °F 8.5 °F 1005.6 in ENE 5.6 mph 5.6 mph 39 % 0.0 in 248.0 W/m2 CLR
17:45 23.3 °F 8.2 °F 1005.6 in ENE 12.9 mph 12.9 mph 38 % 0.0 in 292.0 W/m2 CLR
17:50 23.3 °F 8.6 °F 1005.6 in NE 9.3 mph 9.3 mph 39 % 0.0 in 255.0 W/m2 CLR
17:55 23.3 °F 8.2 °F 1005.6 in ENE 11.1 mph 11.1 mph 38 % 0.0 in 251.0 W/m2 CLR
18:00 23.4 °F 8.3 °F 1006.0 in ENE 11.1 mph 11.1 mph 38 % 0.0 in 279.0 W/m2 CLR
18:05 23.5 °F 8.3 °F 1006.0 in ENE 5.6 mph 5.6 mph 38 % 0.0 in 496.0 W/m2 CLR
18:10 23.6 °F 8.1 °F 1006.0 in Calm   0.2 mph 37 % 0.0 in 626.0 W/m2 CLR
18:15 23.9 °F 8.3 °F 1006.0 in Calm     37 % 0.0 in 578.0 W/m2 CLR
18:20 24.1 °F 8.5 °F 1006.0 in Calm     37 % 0.0 in 332.0 W/m2 CLR
18:25 24.2 °F 8.6 °F 1006.0 in Calm     37 % 0.0 in 213.0 W/m2 CLR
18:30 24.2 °F 7.7 °F 1006.0 in Calm     35 % 0.0 in 156.0 W/m2 CLR
18:35 24.0 °F 8.0 °F 1006.0 in Calm     36 % 0.0 in 167.0 W/m2 CLR
18:40 24.0 °F 8.4 °F 1006.0 in Calm     37 % 0.0 in 227.0 W/m2 CLR
18:45 23.9 °F 7.9 °F 1006.0 in West 1.9 mph   36 % 0.0 in 190.0 W/m2 CLR
18:50 23.9 °F 7.9 °F 1006.3 in Calm     36 % 0.0 in 174.0 W/m2 CLR
18:55 23.8 °F 7.8 °F 1006.0 in Calm     36 % 0.0 in 179.0 W/m2 CLR
19:00 23.9 °F 8.3 °F 1006.0 in Calm     37 % 0.0 in 448.0 W/m2 CLR
19:05 24.4 °F 7.9 °F 1006.0 in ENE 5.6 mph 5.6 mph 35 % 0.0 in 455.0 W/m2 CLR
19:10 24.6 °F 8.1 °F 1006.0 in North 24.1 mph 24.1 mph 35 % 0.0 in 135.0 W/m2 CLR
19:15 24.1 °F 7.7 °F 1006.3 in WNW 24.1 mph 24.1 mph 35 % 0.0 in 105.0 W/m2 CLR
19:20 23.7 °F 7.8 °F 1006.3 in WNW 9.3 mph 9.3 mph 36 % 0.0 in 95.0 W/m2 CLR
19:25 23.4 °F 7.9 °F 1006.3 in WNW 11.1 mph 11.1 mph 37 % 0.0 in 97.0 W/m2 CLR
19:30 23.3 °F 7.8 °F 1006.3 in WNW 18.5 mph 18.5 mph 37 % 0.0 in 90.0 W/m2 CLR
19:35 23.3 °F 8.2 °F 1006.3 in NW 4.8 mph 4.8 mph 38 % 0.0 in 90.0 W/m2 CLR
19:40 23.2 °F 8.1 °F 1006.3 in WNW 11.1 mph 11.1 mph 38 % 0.0 in 79.0 W/m2 CLR
19:45 23.1 °F 7.6 °F 1006.7 in NW 9.3 mph 9.3 mph 37 % 0.0 in 98.0 W/m2 CLR
19:50 23.1 °F 8.0 °F 1006.7 in NW 11.1 mph 11.1 mph 38 % 0.0 in 91.0 W/m2 CLR
19:55 23.1 °F 7.9 °F 1006.7 in NW 7.4 mph 7.4 mph 38 % 0.0 in 81.0 W/m2 CLR
20:00 23.0 °F 7.9 °F 1006.7 in NW 7.4 mph 7.4 mph 38 % 0.0 in 54.0 W/m2 FEW
20:05 22.9 °F 7.9 °F 1007.0 in NW 9.7 mph 9.7 mph 38 % 0.0 in 37.0 W/m2 SCT
20:10 22.8 °F 7.8 °F 1007.0 in NW 5.6 mph 5.6 mph 38 % 0.0 in 25.0 W/m2 BKN
20:15 22.7 °F 8.1 °F 1007.0 in Calm     39 % 0.0 in 18.0 W/m2 BKN
20:20 22.7 °F 8.0 °F 1007.0 in Calm     39 % 0.0 in 11.0 W/m2 BKN
20:25 22.6 °F 8.3 °F 1007.3 in WNW 9.3 mph 9.3 mph 40 % 0.0 in 5.0 W/m2 OVC
20:30 22.6 °F 8.3 °F 1007.3 in WNW 13.0 mph 13.0 mph 40 % 0.0 in 5.0 W/m2 OVC
20:35 22.4 °F 8.5 °F 1007.3 in WNW 7.4 mph 7.4 mph 41 % 0.0 in 5.0 W/m2 OVC
20:40 22.3 °F 8.8 °F 1007.7 in WNW 5.6 mph 5.6 mph 42 % 0.0 in 7.0 W/m2 BKN
20:45 22.2 °F 8.3 °F 1007.7 in West 4.8 mph 4.8 mph 41 % 0.0 in 5.0 W/m2 OVC
20:50 22.2 °F 8.3 °F 1007.7 in WNW 5.6 mph 5.6 mph 41 % 0.0 in 0.0 W/m2 OVC
20:55 22.2 °F 8.7 °F 1008.0 in WNW 7.4 mph 7.4 mph 42 % 0.0 in 0.0 W/m2 OVC
21:00 22.2 °F 8.7 °F 1008.0 in West 13.0 mph 13.0 mph 42 % 0.0 in 0.0 W/m2 OVC
21:05 22.1 °F 8.9 °F 1008.4 in WNW 33.8 mph 33.8 mph 43 % 0.0 in 0.0 W/m2 OVC
21:10 21.4 °F 9.3 °F 1008.7 in WNW 33.3 mph 33.3 mph 46 % 0.0 in 0.0 W/m2 OVC
21:15 21.0 °F 9.3 °F 1008.7 in WNW 27.8 mph 27.8 mph 47 % 0.0 in 0.0 W/m2 OVC
21:20 20.5 °F 9.4 °F 1008.7 in NW 22.2 mph 22.2 mph 49 % 0.0 in 0.0 W/m2 CLR
21:25 20.1 °F 10.2 °F 1009.0 in WNW 19.3 mph 19.3 mph 53 % 0.0 in 0.0 W/m2 CLR
21:30 19.7 °F 10.1 °F 1009.0 in WNW 18.5 mph 18.5 mph 54 % 0.0 in 0.0 W/m2 CLR
21:35 19.4 °F 10.2 °F 1009.0 in NW 16.7 mph 16.7 mph 55 % 0.0 in 0.0 W/m2 CLR
21:36 19.4 °F 10.1 °F 1009.0 in NW 14.8 mph 14.8 mph 55 % 0.0 in 0.0 W/m2 CLR
21:41 19.2 °F 10.5 °F 1009.4 in NNW 3.7 mph 3.7 mph 57 % 0.0 in 0.0 W/m2 CLR
21:46 19.1 °F 10.7 °F 1009.4 in Calm     58 % 0.0 in 0.0 W/m2 CLR
21:51 18.9 °F 11.0 °F 1009.4 in Calm     60 % 0.0 in 0.0 W/m2 CLR
21:56 18.7 °F 11.1 °F 1009.7 in Calm     61 % 0.0 in 0.0 W/m2 CLR
22:01 18.6 °F 11.2 °F 1009.7 in Calm     62 % 0.0 in 0.0 W/m2 CLR
22:06 18.5 °F 10.8 °F 1009.7 in Calm     61 % 0.0 in 0.0 W/m2 CLR
22:11 18.4 °F 11.0 °F 1010.0 in Calm     62 % 0.0 in 0.0 W/m2 CLR
22:16 18.4 °F 11.0 °F 1010.0 in Calm     62 % 0.0 in 0.0 W/m2 CLR
22:21 18.4 °F 11.2 °F 1010.0 in Calm     63 % 0.0 in 0.0 W/m2 CLR
22:22 18.4 °F 11.2 °F 1010.0 in Calm     63 % 0.0 in 0.0 W/m2 CLR
22:26 18.3 °F 11.4 °F 1010.0 in Calm     64 % 0.0 in 0.0 W/m2 CLR
22:31 18.2 °F 11.6 °F 1010.4 in Calm     65 % 0.0 in 0.0 W/m2 CLR
22:36 18.1 °F 11.1 °F 1010.4 in Calm     64 % 0.0 in 0.0 W/m2 CLR
22:41 18.4 °F 10.2 °F 1010.4 in WNW 6.4 mph 6.4 mph 59 % 0.0 in 0.0 W/m2 CLR
22:46 18.8 °F 10.1 °F 1010.4 in WNW 13.0 mph 13.0 mph 57 % 0.0 in 0.0 W/m2 CLR
22:51 19.2 °F 9.9 °F 1010.4 in West 14.8 mph 14.8 mph 55 % 0.0 in 0.0 W/m2 CLR
22:56 19.4 °F 9.8 °F 1010.4 in WNW 22.2 mph 22.2 mph 54 % 0.0 in 0.0 W/m2 CLR
23:01 19.4 °F 9.9 °F 1010.7 in WNW 20.9 mph 20.9 mph 54 % 0.0 in 0.0 W/m2 CLR
23:06 19.3 °F 9.7 °F 1010.7 in West 18.5 mph 18.5 mph 54 % 0.0 in 0.0 W/m2 CLR
23:11 19.1 °F 9.6 °F 1011.1 in WNW 13.0 mph 13.0 mph 54 % 0.0 in 0.0 W/m2 CLR
23:12 19.1 °F 9.8 °F 1011.1 in WNW 13.0 mph 13.0 mph 55 % 0.0 in 0.0 W/m2 CLR
23:17 18.9 °F 9.7 °F 1011.1 in WNW 16.7 mph 16.7 mph 55 % 0.0 in 0.0 W/m2 CLR
23:22 18.8 °F 9.6 °F 1011.1 in West 18.5 mph 18.5 mph 55 % 0.0 in 0.0 W/m2 CLR
23:23 18.8 °F 9.6 °F 1011.1 in WNW 13.0 mph 13.0 mph 55 % 0.0 in 0.0 W/m2 CLR
23:28 18.7 °F 9.5 °F 1011.1 in West 18.5 mph 18.5 mph 55 % 0.0 in 0.0 W/m2 CLR
23:33 18.6 °F 9.7 °F 1011.1 in West 22.2 mph 22.2 mph 56 % 0.0 in 0.0 W/m2 CLR
23:38 18.6 °F 9.6 °F 1011.4 in West 25.9 mph 25.9 mph 56 % 0.0 in 0.0 W/m2 CLR
23:43 18.6 °F 9.4 °F 1011.4 in West 24.1 mph 24.1 mph 55 % 0.0 in 0.0 W/m2 CLR
23:48 18.6 °F 9.4 °F 1011.7 in WNW 18.5 mph 18.5 mph 55 % 0.0 in 0.0 W/m2 CLR
23:53 18.5 °F 9.3 °F 1011.4 in WNW 14.8 mph 14.8 mph 55 % 0.0 in 0.0 W/m2 CLR
23:58 18.4 °F 9.4 °F 1011.4 in WNW 9.3 mph 9.3 mph 56 % 0.0 in 0.0 W/m2 CLR
Lo Temps de Massalio
Compliments of Weather Underground - 1.25 mb